Simultaneous Nadir Overpasses (SNOs) Predictions

Prediction of SNOs between AURA and NPP Satellite Orbit:

Table of predicted SNOs for the next 14.0 days since TLE Epoch: 10/10/2020
Index Date (AURA) Time (AURA) Lat,Lon (AURA) SZA (AURA ) Date (NPP) Time (NPP) Lat,Lon (NPP) SZA (NPP ) Distance(km) Time Diff (sec)
1 10/10/2020 11:25:06 -79.55, 85.78 81.44 10/10/2020 11:24:44 -79.56, 85.91 81.45 2.81 22
2 10/10/2020 12:14:27 79.73,-105.26 98.32 10/10/2020 12:15:23 79.74,-105.27 98.28 0.23 56
3 10/13/2020 02:52:24 78.91, 29.93 100.36 10/13/2020 02:51:10 78.96, 29.85 100.43 5.85 74
4 10/13/2020 03:41:33 -79.62,-157.84 80.58 10/13/2020 03:41:36 -79.63,-157.74 80.61 2.24 3
5 10/15/2020 19:08:40 79.41, 148.95 100.65 10/15/2020 19:07:51 79.42, 148.96 100.68 0.45 49
6 10/15/2020 19:58:00 -79.69, -41.49 79.73 10/15/2020 19:58:28 -79.70, -41.39 79.77 2.09 28
7 10/18/2020 11:25:05 79.51, -94.49 101.45 10/18/2020 11:24:41 79.52, -94.46 101.46 0.74 24
8 10/18/2020 12:14:25 -79.79, 75.11 78.93 10/18/2020 12:15:18 -79.79, 75.23 78.99 2.32 53
9 10/21/2020 02:53:55 -74.64,-166.01 72.14 10/21/2020 02:52:41 -74.91,-167.48 71.85 53.00 74
10 10/21/2020 03:41:31 79.61, 22.05 102.24 10/21/2020 03:41:32 79.61, 22.11 102.23 1.46 1
11 10/23/2020 19:08:39 -79.41, -31.10 76.60 10/23/2020 19:07:48 -79.40, -31.17 76.55 1.52 51
